STARLINK-32753, 62481

Orbit data source: Space-Track

STARLINK-32753, 62481 is a payload satellite owned by SpaceX/Seattle (US) in LEO that was launched on Tue, 31 Dec 2024 UTC via an FALCON 9 launch vehicle from the Air Force Eastern Test Range (AFETR). Payload-class satellites include a variety of spacecraft equipped with specific instruments for various scientific and technological missions. These include communications satellites like Starlink; space stations such as the ISS; scientific satellites like the Hubble; Earth observation satellites from companies like Planet Labs, Umbra, and HawkEye 360; GPS; miniature CubeSats for education and research; and military/defense satellites.

Loading next visibility...
Identifier
62481, 2024-254V
Orbit
LEO
Country
Flag of USUS
Related business
Manufacturer
SpaceX/Seattle
Mission
Operational Commercial Communications
Bus & Motor
STARLINK V2M, Unknown motor
Mass
730 kg wet, ~700 kg dry
Launch date (UTC)
2024-12-31 (2 years ago)
Launch vehicle
FALCON 9
Launch site
Air Force Eastern Test Range (AFETR)
Object type
Payload
Rocket body
Debris
Shape & HBR
Box + 2 Pan, 17.7 m
Radar Cross Section
33.884 m², Large (>1 m²)

Expand to show TLE details & history
Last TLE update: 1 day ago

TLE from 1 day ago
0 STARLINK-32753
1 62481U 24254V   26257.37821872  .00020606  00000-0  75598-3 0  9999
2 62481  43.0024  30.4733 0001311 268.6740  91.3961 15.27591686 96515
Epoch: 2026-09-14T09:04Z
TLE epoch observation values (Epoch: 2026-09-14T09:04:38.097Z)
Latitude
-0.00005°
Longitude
-99.04487°
Altitude
482.812 km
Speed
7.626 km/s
True Right ascension
02h 01m 53s
True Declination
0° 00' 00"
Sunlit
Object was in full shadow at epoch
Visualization orbit readout
Latitude
Unknown
Longitude
Unknown
Altitude
Unknown
Speed
Unknown
Apparent Right ascension
Unknown
Apparent Declination
Unknown
Sunlit
N/A
Visualization observer readout
Local Sidereal Time
03:45:24
Azimuth
Unknown
Elevation
Unknown
Doppler factor
Unknown
Orbital elements
Apogee altitude
485.859 km
Perigee altitude
484.059 km
Semi-major axis
6,863.096 km
Eccentricity
0.00013
Inclination
43.0024°
RAAN
30.4733°
Arg. of periapsis
268.674°
True anomaly
91.41112°
Mean anomaly
91.3961°
Eccentric anomaly
91.40361°
Mean motion
3.81736 °/min
Orbital period
94.31 mins
BSTAR
0.00075598
Loading maneuver chart data...
Computing Atmospheric mass density...
Loading historical data...
Loading historical data...
Loading historical data...
Loading historical data...
Loading historical data...
Loading historical data...
Loading historical data...

Documentation

Showing up to 5 results
|